Weather History for Nassau, Bahamas

Change the Weather History Date:

Monday, December 2, 2013

  Actual Average Record
Temperature  
Mean Temperature 74 °F -  
Max Temperature 82 °F 79 °F 84 °F (2002)
Min Temperature 67 °F 64 °F 60 °F (1997)
Cooling Degree Days 10    
Growing Degree Days 24 (Base 50)    
Moisture  
Dew Point 66 °F    
Average Humidity 78    
Maximum Humidity 100    
Minimum Humidity 57    
Precipitation  
Precipitation 0.00 in 0.07 in - ()
Sea Level Pressure  
Sea Level Pressure 29.88 in    
Wind  
Wind Speed 6 mph ()    
Max Wind Speed 21 mph    
Max Gust Speed -    
Visibility 6.9 miles    
Events      
Averages and records for this station are not official NWS values.
T = Trace of Precipitation, MM = Missing Value Source: Averaged Metar Reports

Daily Weather History Graph

Daily Weather History Graph

Search for Another Location

Airport:

Trip Planner

Search our weather history database for the weather conditions in past years. The results will help you decide how hot, cold, wet, or windy it might be!

Date:

Astronomy

Dec. 02, 2013 Rise Set
Actual Time 6:38 AM EST 5:19 PM EST
Civil Twilight 6:14 AM EST 5:44 PM EST
Nautical Twilight 5:45 AM EST 6:12 PM EST
Astronomical Twilight 5:18 AM EST 6:40 PM EST
Moon 6:05 AM EST (12/2) 5:17 PM EST (12/2)
Length of Visible Light 11h 30m
Length of Day
10h 41m
Waning Crescent, 0% of the Moon is Illuminated
Dec 2
Waning Crescent
Dec 2
New
Dec 9
First Quarter
Dec 17
Full
Dec 25
Last Quarter

Hourly Weather History & Observations

Time (EST) Temp. Heat Index Dew Point Humidity Pressure Visibility Wind Dir Wind Speed Gust Speed Precip Events Conditions
12:00 AM 71.6 °F - 68.0 °F 88% 29.96 in 6.2 mi Calm Calm - N/A   Partly Cloudy
1:00 AM 71 °F - 69 °F 93% 29.94 in 9 mi Calm Calm - -   Scattered Clouds
1:00 AM 69.8 °F - 68.0 °F 94% 9.94 in 6.2 mi North - - N/A   Partly Cloudy
2:00 AM 71.6 °F - 68.0 °F 88% 29.92 in - Calm Calm - N/A   Clear
3:00 AM 71.6 °F - 68.0 °F 88% 29.91 in - Calm Calm - N/A   Clear
4:00 AM 69 °F - 66 °F 89% 29.88 in 9 mi Calm Calm - -   Scattered Clouds
4:00 AM 69.8 °F - 66.2 °F 88% 29.88 in 6.2 mi Calm Calm - N/A   Partly Cloudy
5:00 AM 69.8 °F - 68.0 °F 94% 29.87 in 6.2 mi East 3.5 mph - N/A   Partly Cloudy
6:00 AM 69.8 °F - 66.2 °F 88% 29.88 in 6.2 mi Calm Calm - N/A   Scattered Clouds
7:00 AM 71 °F - 69 °F 93% 29.90 in 9 mi WSW 3.5 mph - -   Scattered Clouds
7:00 AM 69.8 °F - 69.8 °F 100% 29.92 in 6.2 mi WSW 3.5 mph - N/A   Partly Cloudy
8:00 AM 71.6 °F - 68.0 °F 88% 29.91 in 6.2 mi West 4.6 mph - N/A   Scattered Clouds
9:00 AM 75.2 °F - 68.0 °F 78% 29.91 in 6.2 mi WSW 13.8 mph - N/A   Scattered Clouds
10:00 AM 78 °F - 70 °F 69% 29.90 in 9 mi West 18.4 mph - -   Partly Cloudy
10:00 AM 77.0 °F - 69.8 °F 78% 29.90 in 6.2 mi West 18.4 mph - N/A   Mostly Cloudy
11:00 AM 77.0 °F - 68.0 °F 74% 29.89 in 6.2 mi WSW 16.1 mph - N/A   Mostly Cloudy
12:00 PM 77.0 °F - 66.2 °F 69% 29.86 in 6.2 mi West 17.3 mph - N/A   Mostly Cloudy
1:00 PM 80.6 °F 83.9 °F 69.8 °F 70% 29.84 in 6.2 mi WNW 18.4 mph - N/A   Mostly Cloudy
2:00 PM 78.8 °F - 64.4 °F 61% 29.84 in 6.2 mi West 19.6 mph - N/A   Mostly Cloudy
3:00 PM 75.2 °F - 64.4 °F 69% 29.83 in 6.2 mi WNW 20.7 mph - N/A   Mostly Cloudy
4:00 PM 77 °F - 65 °F 59% 29.83 in 9 mi West 17.3 mph - -   Overcast
4:00 PM 77.0 °F - 66.2 °F 69% 29.83 in 6.2 mi West 17.3 mph - N/A   Mostly Cloudy
5:00 PM 75.2 °F - 59.0 °F 57% 29.83 in 6.2 mi West 13.8 mph - N/A   Mostly Cloudy
6:00 PM 73.4 °F - 60.8 °F 65% 29.83 in 6.2 mi West 13.8 mph - N/A   Mostly Cloudy
7:00 PM 73 °F - 65 °F 68% 29.86 in 9 mi West 13.8 mph - -   Scattered Clouds
7:00 PM 73.4 °F - 66.2 °F 78% 29.85 in 6.2 mi West 13.8 mph - N/A   Mostly Cloudy
8:00 PM 73.4 °F - 64.4 °F 73% 29.87 in 6.2 mi West 10.4 mph - N/A   Mostly Cloudy
9:00 PM 73.4 °F - 64.4 °F 73% 29.90 in 6.2 mi West 10.4 mph - N/A   Mostly Cloudy
10:00 PM 73 °F - 65 °F 68% 29.91 in 9 mi West 6.9 mph - -   Scattered Clouds
10:00 PM 73.4 °F - 64.4 °F 73% 29.90 in 6.2 mi West 13.8 mph - N/A   Scattered Clouds
11:00 PM 73.4 °F - 64.4 °F 73% 29.90 in 6.2 mi NNW 2.3 mph - N/A   Scattered Clouds